Погода в Тэгу

Южная Корея     35°54′04″N   128°36′35″E
темп.,
°C
ветер,
м/с
пор.,
м/с
влажн.,
%
обл.,
%
осадки,
мм/ч
давл.,
гПа
погр.,
м
18 июня, пт
пт1800:00+19юв1180100 0.0 100660
03:00+18ю1297100 1.3 1003103
06:00+18ю1198100 0.5 100373
09:00+18ююз1197100 0.7 1003141
12:00+19ю1295100 0.4 1002234
15:00+21ю1187100 0.4 1001352
18:00+23з127480 0.1 1000767
21:00+20с118868 0.2 100114
19 июня, сб
сб1900:00+18сз11924 0.0 100111
03:00+17ссз11951 0.0 100120
06:00+16сз11950 0.0 100236
09:00+22ссз235847 0.0 1002709
12:00+28сз233599 0.0 10011253
15:00+30сз242696 0.0 10002654
18:00+28сз353650 0.0 1000723
21:00+22с115496 0.0 100111
20 июня, вс
вс2000:00+19ю1165100 0.0 100212
03:00+17зсз11765 0.0 100213
06:00+17ссз117582 0.0 100221
09:00+24ссз11463 0.0 1003410
12:00+30зюз1325100 0.0 10021216
15:00+31ююз352485 0.0 10001692
18:00+28з263599 0.0 1000429
21:00+24ююв115073 0.0 100276
21 июня, пн
пн2100:00+20ю11670 0.0 100335
03:00+18зсз00730 0.0 100314
06:00+17с11740 0.0 100451
09:00+24ссз22510 0.0 1005577
12:00+29ссз25340 0.0 10041775
15:00+31с25293 0.0 10032654
18:00+24вюв4658100 0.0 1004520
21:00+18всв1393100 5.8 1008224
22 июня, вт
вт2200:00+18вюв239461 1.5 1008187
03:00+16в119799 1.8 100829
06:00+17вюв119697 0.6 100886
09:00+20св118197 0.7 1009422
12:00+24ю236184 0.0 10081119
15:00+23ю24737 2.3 1008889
18:00+22ююв248126 2.7 1008350
21:00+18вюв229231 5.3 101041